CW0146 Weather Reports


Display with metric or nautical units.
time (UTC)temp
F
wind
direction
speed
MPH
gust
MPH
rain 1hr
in
rain 24hr
in
rain mn
in
humidity
%
barometer
mb
20260506000455 82 130 1.0 2.0 0.00 0.00 0.00 74 1007.0
20260505235957 83 141 2.0 4.0 0.00 0.00 0.00 74 1006.0
20260505235454 83 170 2.0 4.0 0.00 0.00 0.00 74 1006.0
20260505234954 83 206 2.0 4.0 0.00 0.00 0.00 74 1006.0
20260505234454 83 132 2.0 5.0 0.00 0.00 0.00 73 1006.0
20260505233954 83 118 1.0 2.0 0.00 0.00 0.00 73 1006.0
20260505233454 83 127 2.0 4.0 0.00 0.00 0.00 73 1006.0
20260505232954 83 185 5.0 9.0 0.00 0.00 0.00 73 1006.0
20260505232454 83 186 4.0 8.0 0.00 0.00 0.00 72 1006.0
20260505231954 83 178 4.0 8.0 0.00 0.00 0.00 72 1006.0
20260505231454 83 171 2.0 4.0 0.00 0.00 0.00 73 1006.0
20260505230954 83 94 2.0 4.0 0.00 0.00 0.00 73 1006.0
20260505230454 83 150 2.0 4.0 0.00 0.00 0.00 73 1006.0
20260505225955 83 131 2.0 4.0 0.00 0.00 0.00 73 1006.0
20260505225454 83 167 2.0 4.0 0.00 0.00 0.00 73 1006.0
20260505224954 84 134 2.0 2.0 0.00 0.00 0.00 73 1006.0
20260505224455 84 101 3.0 6.0 0.00 0.00 0.00 72 1006.0
20260505223954 84 160 2.0 4.0 0.00 0.00 0.00 71 1006.0
20260505223454 84 176 3.0 5.0 0.00 0.00 0.00 71 1006.0
20260505222954 84 159 2.0 4.0 0.00 0.00 0.00 71 1006.0
20260505222454 84 189 3.0 7.0 0.00 0.00 0.00 71 1006.0
20260505221954 84 145 2.0 4.0 0.00 0.00 0.00 71 1006.0
20260505221454 84 178 3.0 5.0 0.00 0.00 0.00 71 1006.0
20260505220955 84 184 2.0 6.0 0.00 0.00 0.00 71 1006.0
20260505220454 85 189 2.0 6.0 0.00 0.00 0.00 71 1006.0
20260505215955 85 189 2.0 5.0 0.00 0.00 0.00 70 1006.0
20260505215454 84 156 3.0 5.0 0.00 0.00 0.00 70 1006.0
20260505214954 84 156 2.0 3.0 0.00 0.00 0.00 71 1006.0
20260505214454 84 190 4.0 6.0 0.00 0.00 0.00 69 1006.0
20260505213954 84 182 3.0 7.0 0.00 0.00 0.00 69 1006.0
20260505213454 85 175 6.0 12.0 0.00 0.00 0.00 68 1006.0
20260505212955 85 156 2.0 8.0 0.00 0.00 0.00 69 1006.0
20260505212455 84 196 3.0 6.0 0.00 0.00 0.00 69 1006.0
20260505211954 84 177 5.0 13.0 0.00 0.00 0.00 69 1006.0
20260505211455 84 188 6.0 11.0 0.00 0.00 0.00 69 1006.0
20260505210537 84 180 3.0 5.0 0.00 0.00 0.00 69 1007.0
20260505205954 84 149 3.0 5.0 0.00 0.00 0.00 71 1007.0
20260505205454 84 185 5.0 8.0 0.00 0.00 0.00 71 1007.0
20260505204957 84 83 2.0 4.0 0.00 0.00 0.00 71 1007.0
20260505204454 84 184 3.0 7.0 0.00 0.00 0.00 69 1006.0
20260505203954 84 160 2.0 4.0 0.00 0.00 0.00 70 1007.0
20260505203455 84 157 4.0 8.0 0.00 0.00 0.00 69 1007.0
20260505202954 83 183 5.0 9.0 0.00 0.00 0.00 70 1007.0
20260505202455 83 157 3.0 8.0 0.00 0.00 0.00 72 1007.0
20260505201954 83 197 3.0 7.0 0.00 0.00 0.00 71 1007.0
20260505201454 83 206 4.0 8.0 0.00 0.00 0.00 71 1007.0
20260505200954 84 185 5.0 9.0 0.00 0.00 0.00 71 1007.0
20260505200455 83 184 3.0 6.0 0.00 0.00 0.00 71 1007.0
20260505195954 83 182 2.0 4.0 0.00 0.00 0.00 72 1007.0
20260505195454 82 174 2.0 7.0 0.00 0.00 0.00 72 1007.0
20260505194955 82 184 4.0 9.0 0.00 0.00 0.00 73 1007.0
20260505194454 82 181 3.0 7.0 0.00 0.00 0.00 74 1007.0
20260505193954 82 191 4.0 7.0 0.00 0.00 0.00 74 1008.0
20260505193454 82 195 3.0 6.0 0.00 0.00 0.00 75 1008.0
20260505192954 82 183 3.0 6.0 0.00 0.00 0.00 74 1008.0
20260505192454 82 211 2.0 3.0 0.00 0.00 0.00 75 1008.0
20260505191954 82 195 4.0 9.0 0.00 0.00 0.00 72 1008.0
20260505191454 82 173 3.0 5.0 0.00 0.00 0.00 72 1008.0
20260505190954 82 202 2.0 5.0 0.00 0.00 0.00 74 1007.0
20260505190454 81 172 2.0 4.0 0.00 0.00 0.00 76 1008.0
20260505185954 81 182 5.0 9.0 0.00 0.00 0.00 74 1008.0
20260505185454 80 193 3.0 6.0 0.00 0.00 0.00 77 1007.0
20260505184954 81 178 3.0 6.0 0.00 0.00 0.00 74 1008.0
20260505184453 80 193 3.0 5.0 0.00 0.00 0.00 75 1008.0
20260505183954 80 187 3.0 4.0 0.00 0.00 0.00 76 1008.0
20260505183454 80 208 3.0 5.0 0.00 0.00 0.00 78 1008.0
20260505182954 80 188 3.0 7.0 0.00 0.00 0.00 77 1008.0
20260505182454 79 209 3.0 5.0 0.00 0.00 0.00 78 1008.0
20260505181955 79 178 3.0 6.0 0.00 0.00 0.00 78 1008.0
20260505181454 78 179 4.0 7.0 0.00 0.00 0.00 78 1008.0
20260505180954 78 177 4.0 7.0 0.00 0.00 0.00 78 1008.0
20260505180454 78 185 3.0 7.0 0.00 0.00 0.00 80 1009.0
20260505175954 78 198 4.0 8.0 0.00 0.00 0.00 79 1009.0
20260505175454 78 174 5.0 12.0 0.00 0.00 0.00 79 1008.0
20260505174954 78 200 3.0 6.0 0.00 0.00 0.00 80 1009.0
20260505174455 77 185 4.0 7.0 0.00 0.00 0.00 80 1008.0
20260505173954 77 195 4.0 8.0 0.00 0.00 0.00 81 1008.0
20260505173455 77 188 3.0 7.0 0.00 0.00 0.00 81 1009.0
20260505172954 76 174 4.0 6.0 0.00 0.00 0.00 82 1009.0
20260505172454 76 188 4.0 6.0 0.00 0.00 0.00 82 1009.0
20260505171955 76 181 4.0 6.0 0.00 0.00 0.00 83 1009.0
20260505171500 76 176 3.0 6.0 0.00 0.00 0.00 83 1009.0
20260505170954 76 178 2.0 4.0 0.00 0.00 0.00 84 1009.0
20260505170456 76 192 3.0 6.0 0.00 0.00 0.00 83 1009.0
20260505165954 75 186 4.0 7.0 0.00 0.00 0.00 84 1009.0
20260505165454 75 175 2.0 5.0 0.00 0.00 0.00 84 1009.0
20260505164954 75 185 4.0 7.0 0.00 0.00 0.00 84 1009.0
20260505164455 75 188 2.0 4.0 0.00 0.00 0.00 85 1009.0
20260505163954 74 206 3.0 7.0 0.00 0.00 0.00 86 1009.0
20260505163454 74 240 2.0 4.0 0.00 0.00 0.00 87 1009.0
20260505162954 74 203 4.0 7.0 0.00 0.00 0.00 87 1009.0
20260505162454 74 176 4.0 8.0 0.00 0.00 0.00 87 1009.0
20260505161954 73 175 5.0 8.0 0.00 0.00 0.00 88 1009.0
20260505161455 73 177 4.0 8.0 0.00 0.00 0.00 88 1009.0
20260505160954 73 192 3.0 8.0 0.00 0.00 0.00 88 1009.0
20260505160454 73 218 2.0 3.0 0.00 0.00 0.00 88 1009.0
20260505152955 73 204 3.0 5.0 0.00 0.00 0.00 89 1009.0
20260505152454 73 187 3.0 6.0 0.00 0.00 0.00 89 1009.0
20260505151954 73 172 4.0 6.0 0.00 0.00 0.00 89 1009.0
20260505151456 73 187 3.0 5.0 0.00 0.00 0.00 89 1009.0
20260505150954 73 202 3.0 6.0 0.00 0.00 0.00 89 1009.0
20260505150454 73 191 2.0 5.0 0.00 0.00 0.00 89 1009.0
20260505140454 72 197 4.0 7.0 0.00 0.00 0.00 90 1008.0
20260505124955 71 183 4.0 6.0 0.00 0.00 0.00 90 1008.0
20260505124455 71 174 4.0 8.0 0.00 0.00 0.00 90 1008.0
20260505123955 71 178 5.0 11.0 0.00 0.00 0.00 90 1008.0
20260505123454 71 181 4.0 9.0 0.00 0.00 0.00 90 1008.0
20260505122954 71 212 4.0 6.0 0.00 0.00 0.00 90 1008.0
20260505122454 71 184 4.0 8.0 0.00 0.00 0.00 90 1008.0
20260505121955 71 187 3.0 5.0 0.00 0.00 0.00 90 1008.0
20260505121455 71 181 4.0 10.0 0.00 0.00 0.00 90 1007.0
20260505120954 71 178 4.0 7.0 0.00 0.00 0.00 90 1007.0
20260505120454 71 192 4.0 8.0 0.00 0.00 0.00 90 1007.0
20260505115955 71 194 3.0 9.0 0.00 0.00 0.00 90 1007.0
20260505115454 71 191 3.0 5.0 0.00 0.00 0.00 90 1007.0
20260505114956 71 187 6.0 10.0 0.00 0.00 0.00 90 1007.0
20260505114455 71 184 4.0 7.0 0.00 0.00 0.00 90 1007.0
20260505113954 71 179 3.0 4.0 0.00 0.00 0.00 90 1007.0
20260505113454 71 206 4.0 7.0 0.00 0.00 0.00 90 1007.0
20260505112955 71 178 3.0 5.0 0.00 0.00 0.00 90 1007.0
20260505112453 71 185 4.0 6.0 0.00 0.00 0.00 90 1007.0
20260505111955 71 175 3.0 6.0 0.00 0.00 0.00 90 1007.0
20260505111454 71 177 4.0 8.0 0.00 0.00 0.00 90 1007.0
20260505110955 71 186 5.0 10.0 0.00 0.00 0.00 90 1007.0
20260505110454 71 201 2.0 5.0 0.00 0.00 0.00 90 1007.0
20260505101954 71 187 4.0 6.0 0.00 0.00 0.00 88 1008.0
20260505101454 71 197 3.0 5.0 0.00 0.00 0.00 88 1008.0
20260505100955 71 168 4.0 6.0 0.00 0.00 0.00 88 1008.0
20260505100456 71 183 2.0 4.0 0.00 0.00 0.00 88 1008.0
20260505095954 71 181 2.0 4.0 0.00 0.00 0.00 88 1008.0
20260505095454 71 182 4.0 5.0 0.00 0.00 0.00 88 1008.0
20260505094958 71 175 3.0 6.0 0.00 0.00 0.00 88 1008.0
20260505094454 71 178 3.0 6.0 0.00 0.00 0.00 88 1008.0
20260505093954 71 201 2.0 5.0 0.00 0.00 0.00 88 1008.0
20260505093456 71 179 3.0 8.0 0.00 0.00 0.00 88 1008.0
20260505092954 71 180 4.0 6.0 0.00 0.00 0.00 87 1008.0
20260505092454 71 182 4.0 9.0 0.00 0.00 0.00 87 1008.0
20260505092002 71 164 3.0 5.0 0.00 0.00 0.00 87 1008.0
20260505091454 71 174 4.0 5.0 0.00 0.00 0.00 87 1008.0
20260505090955 71 173 2.0 5.0 0.00 0.00 0.00 87 1008.0
20260505090454 71 181 4.0 7.0 0.00 0.00 0.00 87 1008.0
20260505085954 71 177 3.0 7.0 0.00 0.00 0.00 88 1008.0
20260505085455 71 180 3.0 5.0 0.00 0.00 0.00 88 1008.0
20260505084954 71 160 2.0 4.0 0.00 0.00 0.00 89 1008.0
20260505084454 71 179 4.0 8.0 0.00 0.00 0.00 89 1008.0
20260505083955 71 183 3.0 6.0 0.00 0.00 0.00 89 1008.0
20260505083454 71 182 4.0 9.0 0.00 0.00 0.00 89 1008.0
20260505082955 71 174 3.0 8.0 0.00 0.00 0.00 89 1008.0
20260505082454 71 185 4.0 8.0 0.00 0.00 0.00 88 1008.0
20260505081954 71 186 5.0 9.0 0.00 0.00 0.00 88 1008.0
20260505081455 71 186 3.0 6.0 0.00 0.00 0.00 88 1008.0
20260505080955 71 189 4.0 6.0 0.00 0.00 0.00 88 1008.0
20260505080454 71 189 3.0 7.0 0.00 0.00 0.00 88 1008.0
20260505075954 71 199 3.0 5.0 0.00 0.00 0.00 88 1008.0
20260505075454 71 187 2.0 6.0 0.00 0.00 0.00 88 1008.0
20260505074954 71 176 4.0 7.0 0.00 0.00 0.00 87 1008.0
20260505074454 71 183 5.0 11.0 0.00 0.00 0.00 87 1008.0
20260505073954 71 186 6.0 11.0 0.00 0.00 0.00 87 1008.0
20260505073454 71 195 4.0 9.0 0.00 0.00 0.00 87 1008.0
20260505072954 71 187 5.0 7.0 0.00 0.00 0.00 87 1009.0
20260505072454 71 194 5.0 9.0 0.00 0.00 0.00 87 1009.0
20260505071955 71 178 4.0 7.0 0.00 0.00 0.00 87 1009.0
20260505071459 71 196 5.0 7.0 0.00 0.00 0.00 87 1009.0
20260505070955 71 189 6.0 11.0 0.00 0.00 0.00 87 1009.0
20260505070456 71 187 4.0 6.0 0.00 0.00 0.00 87 1009.0
20260505065954 71 180 5.0 9.0 0.00 0.00 0.00 87 1009.0
20260505065454 71 191 4.0 7.0 0.00 0.00 0.00 87 1009.0
20260505064954 71 172 6.0 11.0 0.00 0.00 0.00 87 1009.0
20260505064454 71 187 4.0 9.0 0.00 0.00 0.00 87 1009.0
20260505063954 71 186 4.0 6.0 0.00 0.00 0.00 87 1009.0
20260505063454 71 193 4.0 7.0 0.00 0.00 0.00 87 1009.0
20260505062954 71 172 4.0 7.0 0.00 0.00 0.00 87 1009.0
20260505062454 71 195 3.0 6.0 0.00 0.00 0.00 87 1009.0
20260505061954 71 163 4.0 8.0 0.00 0.00 0.00 87 1009.0
20260505061455 71 184 3.0 5.0 0.00 0.00 0.00 87 1009.0
20260505060955 71 183 3.0 8.0 0.00 0.00 0.00 87 1009.0
20260505060454 71 176 5.0 7.0 0.00 0.00 0.00 87 1009.0
20260505055954 71 181 4.0 8.0 0.00 0.00 0.00 87 1009.0
20260505055454 71 178 5.0 11.0 0.00 0.00 0.00 87 1009.0
20260505054954 71 190 4.0 8.0 0.00 0.00 0.00 87 1009.0
20260505054455 71 176 4.0 8.0 0.00 0.00 0.00 87 1009.0
20260505053954 71 175 3.0 6.0 0.00 0.00 0.00 87 1009.0
20260505053454 71 181 4.0 7.0 0.00 0.00 0.00 87 1009.0
20260505052954 71 190 4.0 7.0 0.00 0.00 0.00 87 1009.0
20260505052454 71 181 5.0 11.0 0.00 0.00 0.00 86 1009.0
20260505051955 71 195 3.0 6.0 0.00 0.00 0.00 87 1009.0
20260505051454 71 186 5.0 7.0 0.00 0.00 0.00 87 1009.0
20260505050954 71 179 4.0 7.0 0.00 0.00 0.00 87 1009.0
20260505050454 71 171 2.0 6.0 0.00 0.00 0.00 87 1009.0
20260505041454 72 66 2.0 3.0 0.00 0.00 0.00 85 1009.0
20260505040954 72 172 3.0 6.0 0.00 0.00 0.00 84 1009.0
20260505040455 73 135 1.0 4.0 0.00 0.00 0.00 84 1010.0
20260505035954 73 102 1.0 2.0 0.00 0.00 0.00 83 1010.0
20260505035458 73 120 1.0 2.0 0.00 0.00 0.00 82 1010.0
20260505034954 74 195 2.0 4.0 0.00 0.00 0.00 81 1010.0
20260505034454 74 186 3.0 4.0 0.00 0.00 0.00 81 1009.0
20260505033954 74 188 4.0 11.0 0.00 0.00 0.00 81 1009.0
20260505033454 74 174 2.0 6.0 0.00 0.00 0.00 81 1009.0
20260505032954 74 169 2.0 6.0 0.00 0.00 0.00 81 1009.0
20260505032454 74 206 1.0 4.0 0.00 0.00 0.00 80 1009.0
20260505031954 74 153 2.0 4.0 0.00 0.00 0.00 80 1009.0
20260505031454 74 189 3.0 7.0 0.00 0.00 0.00 80 1009.0
20260505030954 74 154 2.0 4.0 0.00 0.00 0.00 79 1009.0
20260505030454 74 190 3.0 9.0 0.00 0.00 0.00 79 1009.0
20260505025954 75 187 1.0 2.0 0.00 0.00 0.00 79 1009.0
20260505025454 75 184 2.0 4.0 0.00 0.00 0.00 78 1009.0
20260505024954 75 173 2.0 5.0 0.00 0.00 0.00 78 1009.0
20260505024454 75 161 2.0 5.0 0.00 0.00 0.00 77 1009.0
20260505023954 75 128 2.0 7.0 0.00 0.00 0.00 77 1009.0
20260505023454 75 141 1.0 2.0 0.00 0.00 0.00 76 1009.0
20260505022954 75 201 2.0 5.0 0.00 0.00 0.00 76 1009.0
20260505022454 76 179 2.0 4.0 0.00 0.00 0.00 76 1009.0
20260505021954 76 188 3.0 6.0 0.00 0.00 0.00 75 1009.0
20260505021454 76 185 3.0 5.0 0.00 0.00 0.00 75 1009.0
20260505020954 76 165 4.0 7.0 0.00 0.00 0.00 74 1009.0
20260505020454 76 189 3.0 5.0 0.00 0.00 0.00 74 1009.0
20260505015511 76 190 3.0 5.0 0.00 0.00 0.00 73 1009.0
20260505014454 76 187 2.0 4.0 0.00 0.00 0.00 72 1009.0
20260505013954 77 198 2.0 4.0 0.00 0.00 0.00 71 1009.0
20260505013454 77 204 2.0 3.0 0.00 0.00 0.00 71 1009.0
20260505012954 77 179 2.0 3.0 0.00 0.00 0.00 70 1009.0
20260505012454 77 193 2.0 4.0 0.00 0.00 0.00 69 1009.0
20260505011954 77 186 2.0 5.0 0.00 0.00 0.00 69 1009.0
20260505011454 77 172 2.0 5.0 0.00 0.00 0.00 69 1009.0
20260505010954 78 190 2.0 5.0 0.00 0.00 0.00 68 1009.0
20260505010458 78 176 2.0 4.0 0.00 0.00 0.00 68 1009.0
20260505005954 78 180 3.0 5.0 0.00 0.00 0.00 68 1009.0
20260505005454 78 200 2.0 4.0 0.00 0.00 0.00 67 1009.0
20260505004954 78 190 4.0 7.0 0.00 0.00 0.00 66 1009.0
20260505004454 79 157 2.0 8.0 0.00 0.00 0.00 66 1009.0
20260505003954 79 151 2.0 3.0 0.00 0.00 0.00 65 1009.0
20260505003454 79 181 3.0 7.0 0.00 0.00 0.00 65 1009.0
20260505002954 80 187 3.0 5.0 0.00 0.00 0.00 64 1009.0
20260505002454 80 174 4.0 10.0 0.00 0.00 0.00 64 1009.0
20260505001954 80 183 3.0 6.0 0.00 0.00 0.00 63 1009.0
20260505001454 80 167 3.0 5.0 0.00 0.00 0.00 63 1009.0
20260505000955 80 152 3.0 6.0 0.00 0.00 0.00 62 1009.0